Regional Weather Roundup
Issued by NWS

Home | Current Version | Previous Version | Graphics & Text | Print | Product List | Glossary On
Versions: 1 2 3 4 5 6 7 8 9 10 11 12 13 14 15 16 17 18 19 20 21 22 23 24 25 26 27 28 29 30 31 32 33 34 35 36 37 38 39 40 41 42 43 44 45 46 47 48 49 50
000
ASUS45 KCYS 280110
RWRWY

WYOMING REGIONAL WEATHER ROUNDUP
NATIONAL WEATHER SERVICE CHEYENNE WY
700 PM MDT TUE SEP 27 2016

NOTE:  "FAIR" INDICATES FEW OR NO CLOUDS BELOW 12,000 FEET
WITH NO SIGNIFICANT WEATHER AND/OR OBSTRUCTIONS TO VISIBILITY.

WYZ001-280200-
YELLOWSTONE NATIONAL PARK

CITY           SKY/WX    TMP DP  RH WIND       PRES   REMARKS
LK YELLOWSTONE   N/A     51  43  74 CALM      30.35S
W YELLOWSTONE  NOT AVBL

$$
WYZ002>013-054>058-071-098>099-280200-
NORTHERN WYOMING

CITY           SKY/WX    TMP DP  RH WIND       PRES   REMARKS
JACKSON        NOT AVBL
CODY           FAIR      70  39  32 CALM      30.17R
GREYBULL       FAIR      71  51  49 NW5       30.07S
WORLAND        FAIR      70  51  51 CALM      30.08S
SHERIDAN       FAIR      61  50  67 W5        30.08R
BUFFALO        FAIR      71  39  31 NW9       30.15R
GILLETTE       FAIR      64  42  44 NW9       30.10R
HULETT         FAIR      72  39  30 CALM      30.11R
NEWCASTLE      FAIR      68  36  30 N9        30.09R

$$
WYZ014>020-022>026-101>103-280200-
CENTRAL WYOMING

CITY           SKY/WX    TMP DP  RH WIND       PRES   REMARKS
BIG PINEY      FAIR      66  37  34 S5        30.26S
PINEDALE       FAIR      68  30  24 N3        30.27S
DUBOIS         FAIR      59  36  41 S7        30.27R
LANDER         FAIR      69  38  32 NE6       30.16S
RIVERTON       FAIR      66  41  40 NE5       30.18R
CASPER         FAIR      64  40  41 W7        30.15R
DOUGLAS        FAIR      67  40  37 CALM      30.12S

$$
WYZ021-027>030-104>119-280200-
SOUTHERN WYOMING

CITY           SKY/WX    TMP DP  RH WIND       PRES   REMARKS
EVANSTON       FAIR      69  34  27 N6        30.26S
FORT BRIDGER   FAIR      67  33  27 SE6       30.29S
ROCK SPRINGS   LGT RAIN  68  30  24 CALM      30.25S
DIXON          FAIR      67  36  32 CALM      30.27S
RAWLINS        FAIR      64  29  26 NW6       30.26R
SARATOGA       FAIR      59  32  36 N7        30.28S
LARAMIE        FAIR      61  29  29 NE7       30.27R
CHEYENNE       FAIR      70  28  21 N7        30.19R
TORRINGTON     FAIR      69  34  27 N13       30.06R
PINE BLUFFS    FAIR      64  30  27 NE7       30.14R

$$



USA.gov is the U.S. government's official web portal to all federal, state and local government web resources and services.